Flag for Argentina Weather past 2 weeks in Zárate, Buenos Aires, Argentina

Now
64 °F

Clear.


Feels Like: 64 °F
Forecast: N/A
Wind: 10 mph from Southeast

Location: Buenos Aires Airport

Current Time: Aug 30, 2014 at 5:23:46 PM

Latest Report: Aug 30, 2014 at 5:00 PM


Visibility: 5 mi

Pressure: 29.86 "Hg

Humidity: 73%

Dew point: 55 °F

Location of ZárateLocation

Historic Weather in Zárate — Graph

°F

Zárate temperature yesterday

Maximum temperature yesterday: 61 °F (at 3:00 PM)
Minimum temperature yesterday: 50 °F (at 12:00 AM)
Average temperature yesterday: 55 °F

Past Weeks' High & Low Weather Summary

 TemperatureHumidityPressure
High79 °F (Aug 23, 3:00 PM)100% (Aug 17, 6:00 AM)30.27 "Hg (Aug 17, 6:00 AM)
Low43 °F (Aug 27, 4:00 AM)42% (Aug 29, 3:00 PM)29.45 "Hg (Aug 23, 6:00 PM)
Average59 °F75%29.98 "Hg
* Reported Aug 15 4:00 PM — Aug 30 4:00 PM, Zárate, Weather by CustomWeather, © 2014

Note: Actual official high and low records may vary slightly from our data, if they occured in-between our weather recording intervals... More about our weather records

Advertising

Zárate weather history for previous 24 hours

 ConditionsComfort  
Time TempWeatherWind HumidityBarometerVisibility
4:00 PM
Aug 30
64 °FClear.6 mph73%29.86 "Hg5 mi
3:00 PM64 °FClear.7 mph73%29.89 "Hg5 mi
2:00 PM63 °FSunny.6 mph77%29.92 "Hg10 mi
1:00 PM63 °FSunny.7 mph73%29.95 "Hg10 mi
12:00 PM61 °FSunny.8 mph72%29.98 "Hg10 mi
11:00 AM59 °FSunny.7 mph77%30.01 "Hg10 mi
10:00 AM59 °FSunny.3 mph77%30.01 "Hg10 mi
9:00 AM55 °FSunny.5 mph88%30.01 "Hg10 mi
8:00 AM55 °FSunny.5 mph82%30.04 "Hg10 mi
7:00 AM55 °FSunny.8 mph82%30.04 "Hg10 mi
6:00 AM55 °FClear.5 mph82%30.04 "Hg10 mi
5:00 AM55 °FClear.7 mph82%30.04 "Hg10 mi
4:00 AM55 °FClear.7 mph82%30.04 "Hg10 mi
3:00 AM57 °FClear.6 mph72%30.04 "Hg10 mi
2:00 AM57 °FClear.7 mph72%30.07 "Hg10 mi
1:00 AM57 °FClear.6 mph72%30.07 "Hg10 mi
12:00 AM57 °FPassing clouds.7 mph77%30.07 "HgN/A
11:00 PM
Aug 29
57 °FClear.12 mph82%30.07 "Hg10 mi
10:00 PM55 °FClear.13 mph88%30.07 "Hg10 mi
9:00 PM55 °FClear.12 mph82%30.07 "Hg10 mi
8:00 PM55 °FPassing clouds.12 mph72%30.09 "HgN/A
7:00 PM57 °FClear.10 mph67%30.07 "Hg10 mi
6:00 PM59 °FPassing clouds.10 mph51%30.07 "HgN/A
Weather by CustomWeather, © 2014

See weather overviewHow to use our weather pages